Location: Unspecified
(0.0000°N, 0.0000°E)
Time: 16:35:36
(UTC+00:00)

Vanguard 3 - Pass Details

Date: 27 November 2019
Orbit: 508 x 3263 km, 33.3° (Epoch: 12 December)

Event Time Altitude Azimuth Distance (km) Brightness Sun altitude
Rises 15:43:50 0° 317° (NW) 7,189 12.2 28.7°
Reaches altitude 10° 15:50:40 10° 330° (NNW) 6,185 11.8 27.1°
Maximum altitude 16:04:38 24° 16° (NNE) 4,684 10.8 23.9°
Drops below altitude 10° 16:15:48 10° 63° (ENE) 4,937 10.6 21.3°
Sets 16:20:16 0° 77° (ENE) 5,513 10.8 20.3°
